Howell, MI

4:18 PM EDT on May 27, 2018 (GMT -0400)
Livingston County

Weather History for KOZW - April, 2014

Change the Weather History Date:

Thursday, April 3, 2014

  Actual Average Record
Temperature  
Mean Temperature 36 °F -  
Max Temperature 39 °F 51 °F 78 °F (1999)
Min Temperature 32 °F 32 °F 19 °F (2016)
Degree Days  
Heating Degree Days 30    
Moisture  
Dew Point 26 °F    
Average Humidity 68    
Maximum Humidity 87    
Minimum Humidity 52    
Precipitation  
Precipitation 0.00 in - - ()
Sea Level Pressure  
Sea Level Pressure 30.02 in    
Wind  
Wind Speed 10 mph (ENE)    
Max Wind Speed 24 mph    
Max Gust Speed 30 mph    
Visibility 9 miles    
Events Rain , Snow    
Averages and records for this station are not official NWS values.
T = Trace of Precipitation, MM = Missing Value Source: NWS Daily Summary

Daily Weather History Graph

Daily Weather History Graph

Search for Another Location

Airport or City:

Astronomy

Apr. 03, 2014 Rise Set
Actual Time 7:14 AM EDT 8:04 PM EDT
Civil Twilight 6:46 AM EDT 8:32 PM EDT
Nautical Twilight 6:12 AM EDT 9:06 PM EDT
Astronomical Twilight 5:37 AM EDT 9:42 PM EDT
Moon 9:38 AM EDT (4/3) No Moon Set
Length of Visible Light 13h 46m
Length of Day
12h 49m
Waxing Crescent, 17% of the Moon is Illuminated
Apr 3
Waxing Crescent
Apr 7
First Quarter
Apr 15
Full
Apr 22
Last Quarter
Apr 29
New

Hourly Weather History & Observations

Time (EDT) Temp. Windchill Dew Point Humidity Pressure Visibility Wind Dir Wind Speed Gust Speed Precip Events Conditions
12:15 AM 39.2 °F 33.6 °F 29.1 °F 67% 30.17 in 10.0 mi ENE 8.1 mph - N/A   Overcast
12:35 AM 38.7 °F 32.4 °F 28.2 °F 66% 30.17 in 10.0 mi East 9.2 mph - N/A   Overcast
12:55 AM 38.5 °F 33.4 °F 27.5 °F 65% 30.17 in 10.0 mi East 6.9 mph - N/A   Overcast
1:15 AM 38.3 °F 33.2 °F 27.0 °F 64% 30.16 in 10.0 mi ENE 6.9 mph - N/A   Overcast
1:35 AM 37.8 °F 33.3 °F 27.0 °F 65% 30.16 in 10.0 mi East 5.8 mph - N/A   Overcast
1:54 AM 37.6 °F 32.3 °F 26.1 °F 63% 30.17 in 10.0 mi East 6.9 mph - N/A   Overcast
2:15 AM 37.6 °F 31.6 °F 25.2 °F 61% 30.15 in 10.0 mi East 8.1 mph - N/A   Overcast
2:35 AM 37.4 °F 30.8 °F 24.1 °F 59% 30.14 in 10.0 mi East 9.2 mph - N/A   Overcast
2:54 AM 37.0 °F 32.4 °F 23.9 °F 59% 30.14 in 10.0 mi East 5.8 mph - N/A   Overcast
3:15 AM 37.0 °F 31.0 °F 23.2 °F 57% 30.13 in 10.0 mi ENE 8.1 mph - N/A   Overcast
3:35 AM 36.7 °F 29.9 °F 23.0 °F 58% 30.13 in 10.0 mi ENE 9.2 mph - N/A   Overcast
3:54 AM 36.5 °F 30.3 °F 23.0 °F 58% 30.12 in 10.0 mi East 8.1 mph - N/A   Overcast
4:15 AM 36.5 °F 31.8 °F 23.0 °F 58% 30.14 in 10.0 mi ESE 5.8 mph - N/A   Mostly Cloudy
4:35 AM 36.5 °F 29.7 °F 23.0 °F 58% 30.13 in 10.0 mi East 9.2 mph - N/A   Overcast
4:54 AM 36.3 °F 30.1 °F 23.0 °F 59% 30.13 in 10.0 mi East 8.1 mph - N/A   Overcast
5:15 AM 36.1 °F 29.3 °F 23.0 °F 59% 30.13 in 10.0 mi ENE 9.2 mph - N/A   Overcast
5:35 AM 36.0 °F 28.5 °F 23.0 °F 59% 30.12 in 10.0 mi ENE 10.4 mph - N/A   Overcast
5:54 AM 35.6 °F 27.1 °F 22.5 °F 59% 30.12 in 10.0 mi East 12.7 mph 17.3 mph N/A   Overcast
6:15 AM 35.4 °F 28.4 °F 22.8 °F 60% 30.12 in 10.0 mi East 9.2 mph - N/A   Overcast
6:35 AM 35.2 °F 26.6 °F 22.1 °F 59% 30.12 in 10.0 mi East 12.7 mph 17.3 mph N/A   Overcast
6:55 AM 34.9 °F 27.1 °F 21.7 °F 59% 30.13 in 10.0 mi East 10.4 mph - N/A   Overcast
7:15 AM 34.7 °F 26.9 °F 21.2 °F 58% 30.14 in 10.0 mi ENE 10.4 mph - N/A   Overcast
7:34 AM 34.2 °F 24.8 °F 20.8 °F 58% 30.11 in 10.0 mi ENE 13.8 mph 19.6 mph N/A   Overcast
7:55 AM 33.8 °F 23.5 °F 19.9 °F 57% 30.11 in 10.0 mi East 16.1 mph 23.0 mph N/A   Overcast
8:15 AM 33.8 °F 23.2 °F 18.3 °F 53% 30.10 in 10.0 mi East 17.3 mph 25.3 mph N/A   Overcast
8:35 AM 33.4 °F 23.9 °F 17.8 °F 53% 30.12 in 10.0 mi ENE 13.8 mph - N/A   Overcast
8:55 AM 33.4 °F 23.5 °F 17.6 °F 52% 30.09 in 10.0 mi ENE 15.0 mph - N/A   Overcast
9:15 AM 33.3 °F 23.7 °F 17.4 °F 52% 30.10 in 10.0 mi ENE 13.8 mph - N/A   Overcast
9:34 AM 33.3 °F 23.7 °F 18.0 °F 53% 30.10 in 10.0 mi ENE 13.8 mph 19.6 mph N/A   Light Drizzle
9:55 AM 33.4 °F 24.8 °F 17.2 °F 52% 30.09 in 10.0 mi East 11.5 mph 17.3 mph N/A   Overcast
10:15 AM 33.8 °F 26.4 °F 17.8 °F 52% 30.10 in 10.0 mi East 9.2 mph - N/A Rain Light Rain
10:34 AM 33.3 °F 25.7 °F 19.0 °F 56% 30.11 in 10.0 mi East 9.2 mph - N/A Rain Light Rain
10:55 AM 33.1 °F 26.9 °F 21.0 °F 61% 30.11 in 10.0 mi East 6.9 mph - N/A   Overcast
11:15 AM 32.5 °F 24.8 °F 22.8 °F 67% 30.09 in 5.0 mi East 9.2 mph - N/A   Overcast
11:34 AM 32.2 °F 24.4 °F 23.9 °F 72% 30.07 in 7.0 mi ENE 9.2 mph - N/A   Overcast
11:55 AM 32.2 °F 24.4 °F 23.9 °F 72% 30.06 in 10.0 mi ENE 9.2 mph - N/A Snow Light Snow
12:15 PM 32.2 °F 25.0 °F 24.8 °F 74% 30.05 in 10.0 mi ENE 8.1 mph - N/A   Overcast
12:34 PM 32.4 °F 25.3 °F 25.3 °F 75% 30.06 in 10.0 mi East 8.1 mph - N/A   Overcast
12:55 PM 32.4 °F 26.0 °F 26.2 °F 78% 30.05 in 5.0 mi ENE 6.9 mph - N/A   Overcast
1:15 PM 32.5 °F 25.5 °F 27.7 °F 82% 30.04 in 5.0 mi East 8.1 mph - N/A Rain Light Rain
1:34 PM 32.9 °F 24.1 °F 28.4 °F 84% 30.02 in 5.0 mi ENE 11.5 mph - N/A   Overcast
1:55 PM 33.1 °F 24.9 °F 28.8 °F 84% 30.00 in 7.0 mi East 10.4 mph - N/A Snow Light Snow
2:15 PM 33.3 °F 25.7 °F 29.7 °F 87% 29.99 in 7.0 mi East 9.2 mph - N/A Snow Light Snow
2:35 PM 33.4 °F 26.6 °F 29.3 °F 85% 29.98 in 7.0 mi East 8.1 mph - N/A Rain Light Rain
2:55 PM 33.8 °F 25.8 °F 29.7 °F 85% 29.96 in 7.0 mi East 10.4 mph - N/A Rain Light Rain
3:15 PM 34.3 °F 27.0 °F 30.2 °F 85% 29.95 in 7.0 mi East 9.2 mph - N/A Rain Light Rain
3:35 PM 34.7 °F 25.5 °F 30.4 °F 84% 29.93 in 5.0 mi East 13.8 mph 20.7 mph N/A Rain Light Rain
3:55 PM 35.1 °F 25.9 °F 30.9 °F 85% 29.91 in 7.0 mi East 13.8 mph 19.6 mph N/A   Light Drizzle
4:15 PM 36.1 °F 26.9 °F 31.8 °F 84% 29.87 in 7.0 mi East 15.0 mph 24.2 mph N/A   Light Drizzle
4:35 PM 37.4 °F 26.1 °F 31.6 °F 80% 29.85 in 10.0 mi East 24.2 mph 29.9 mph N/A   Scattered Clouds
4:55 PM 38.7 °F 29.5 °F 31.3 °F 75% 29.84 in 10.0 mi East 17.3 mph 26.5 mph N/A   Clear
5:15 PM 39.6 °F 30.3 °F 31.6 °F 73% 29.82 in 10.0 mi East 18.4 mph 25.3 mph N/A   Mostly Cloudy
5:35 PM 39.6 °F 32.5 °F 30.9 °F 71% 29.85 in 10.0 mi ENE 11.5 mph 23.0 mph N/A   Overcast
5:55 PM 39.2 °F 31.6 °F 30.4 °F 71% 29.87 in 10.0 mi ENE 12.7 mph - N/A   Overcast
6:15 PM 39.2 °F 32.5 °F 30.0 °F 70% 29.88 in 10.0 mi ENE 10.4 mph - N/A   Overcast
6:35 PM 38.7 °F 31.4 °F 30.0 °F 71% 29.89 in 10.0 mi East 11.5 mph 17.3 mph N/A   Overcast
6:55 PM 38.5 °F 30.7 °F 30.0 °F 72% 29.89 in 10.0 mi ENE 12.7 mph - N/A   Overcast
7:14 PM 38.3 °F 33.9 °F 30.2 °F 73% 29.90 in 10.0 mi NE 5.8 mph - N/A   Light Drizzle
7:35 PM 37.9 °F 32.7 °F 30.7 °F 75% 29.90 in 10.0 mi ENE 6.9 mph - N/A   Light Drizzle
7:55 PM 37.9 °F 31.5 °F 30.4 °F 74% 29.90 in 10.0 mi NE 9.2 mph - N/A   Overcast
8:14 PM 37.8 °F 31.8 °F 29.8 °F 73% 29.89 in 10.0 mi ENE 8.1 mph - N/A   Overcast
8:35 PM 37.6 °F 30.5 °F 28.9 °F 71% 29.88 in 10.0 mi NE 10.4 mph 16.1 mph N/A   Overcast
8:55 PM 37.0 °F 29.3 °F 28.8 °F 72% 29.85 in 10.0 mi NE 11.5 mph - N/A   Overcast
9:14 PM 36.7 °F 29.4 °F 28.8 °F 73% 29.85 in 10.0 mi NE 10.4 mph 18.4 mph N/A   Overcast
9:35 PM 36.5 °F 29.7 °F 28.4 °F 72% 29.84 in 10.0 mi NE 9.2 mph 17.3 mph N/A   Overcast
9:55 PM 36.5 °F 29.7 °F 28.8 °F 74% 29.84 in 10.0 mi ENE 9.2 mph - N/A   Overcast
10:14 PM 36.3 °F 30.1 °F 28.8 °F 74% 29.85 in 10.0 mi ENE 8.1 mph - N/A   Overcast
10:35 PM 36.3 °F 31.6 °F 28.6 °F 74% 29.86 in 10.0 mi ENE 5.8 mph - N/A   Overcast
11:55 PM 36.0 °F 27.5 °F 30.7 °F 81% 29.83 in 10.0 mi East 12.7 mph 16.1 mph N/A   Overcast